When you browse on this site, cookies collect data to enhance your experience and personalize the content and advertising you see.
Visit our Privacy Policy to learn more. By continuing to use the site, you agree to this use of cookies and data.
  • In United Kingdom
  • List of Countries
  • For 7 days
  • Water Temperature
  • Weather Map
  • Weather Widgets
  • user-avatar
    Login

    Hourly Weather Ambad

    Today, 2 April, Thursday

    Time Temperature Precipitation Wind Pressure Humidity
    00:00 +31°C° 0 mm 3 mps 716 mmHg 22%
    01:00 +30°C° 0 mm 3 mps 716 mmHg 23%
    02:00 +30°C° 0 mm 3 mps 715 mmHg 24%
    03:00 +29°C° 0 mm 3 mps 715 mmHg 25%
    04:00 +28°C° 0 mm 3 mps 715 mmHg 26%
    05:00 +28°C° 0 mm 3 mps 715 mmHg 27%
    06:00 +30°C° 0 mm 3 mps 716 mmHg 24%
    07:00 +31°C° 0 mm 3 mps 717 mmHg 22%
    08:00 +34°C° 0 mm 4 mps 717 mmHg 20%
    09:00 +36°C° 0 mm 3 mps 717 mmHg 18%
    10:00 +38°C° 0 mm 2 mps 717 mmHg 16%
    11:00 +39°C° 0 mm 1 mps 718 mmHg 13%
    12:00 +40°C° 0 mm 1 mps 717 mmHg 13%
    13:00 +41°C° 0 mm 1 mps 716 mmHg 12%
    14:00 +41°C° 0 mm 1 mps 715 mmHg 12%
    15:00 +41°C° 0 mm 1 mps 714 mmHg 12%
    16:00 +41°C° 0 mm 2 mps 714 mmHg 11%
    17:00 +40°C° 0 mm 2 mps 715 mmHg 12%
    18:00 +39°C° 0 mm 3 mps 715 mmHg 14%
    19:00 +38°C° 0 mm 3 mps 715 mmHg 15%
    20:00 +36°C° 0 mm 4 mps 715 mmHg 16%
    21:00 +36°C° 0 mm 4 mps 715 mmHg 18%
    22:00 +35°C° 0 mm 3 mps 715 mmHg 19%
    23:00 +34°C° 0 mm 3 mps 716 mmHg 20%

    Tomorrow, 3 April, Friday

    Time Temperature Precipitation Wind Pressure Humidity
    00:00 +33°C° 0 mm 3 mps 715 mmHg 21%
    01:00 +31°C° 0 mm 3 mps 715 mmHg 22%
    02:00 +30°C° 0 mm 3 mps 714 mmHg 23%
    03:00 +30°C° 0 mm 3 mps 715 mmHg 23%
    04:00 +29°C° 0 mm 2 mps 715 mmHg 23%
    05:00 +29°C° 0 mm 2 mps 715 mmHg 23%
    06:00 +30°C° 0 mm 3 mps 716 mmHg 21%
    07:00 +33°C° 0 mm 4 mps 716 mmHg 18%
    08:00 +35°C° 0 mm 4 mps 717 mmHg 16%
    09:00 +37°C° 0 mm 4 mps 717 mmHg 15%
    10:00 +38°C° 0 mm 3 mps 717 mmHg 13%
    11:00 +40°C° 0 mm 3 mps 717 mmHg 12%
    12:00 +41°C° 0 mm 2 mps 716 mmHg 12%
    13:00 +41°C° 0 mm 1 mps 716 mmHg 11%
    14:00 +39°C° 0 mm 0 mps 715 mmHg 11%
    15:00 +42°C° 0 mm 1 mps 714 mmHg 11%
    16:00 +42°C° 0 mm 1 mps 714 mmHg 10%
    17:00 +42°C° 0 mm 1 mps 714 mmHg 10%
    18:00 +40°C° 0 mm 2 mps 714 mmHg 12%
    19:00 +39°C° 0 mm 2 mps 715 mmHg 13%
    20:00 +37°C° 0 mm 2 mps 715 mmHg 14%
    21:00 +36°C° 0 mm 3 mps 715 mmHg 15%
    22:00 +36°C° 0 mm 3 mps 715 mmHg 17%
    23:00 +35°C° 0 mm 3 mps 716 mmHg 18%

    Day after tomorrow, 4 April, Saturday

    Time Temperature Precipitation Wind Pressure Humidity
    00:00 +34°C° 0 mm 3 mps 715 mmHg 19%
    01:00 +33°C° 0 mm 4 mps 715 mmHg 19%
    02:00 +33°C° 0 mm 4 mps 715 mmHg 20%
    03:00 +32°C° 0 mm 4 mps 715 mmHg 20%
    04:00 +30°C° 0 mm 3 mps 715 mmHg 20%
    05:00 +30°C° 0 mm 3 mps 715 mmHg 21%
    06:00 +31°C° 0 mm 3 mps 715 mmHg 19%
    07:00 +33°C° 0 mm 4 mps 716 mmHg 17%
    08:00 +35°C° 0 mm 4 mps 717 mmHg 16%
    09:00 +36°C° 0 mm 3 mps 717 mmHg 15%
    10:00 +38°C° 0 mm 2 mps 717 mmHg 15%
    11:00 +40°C° 0 mm 1 mps 717 mmHg 15%
    12:00 +41°C° 0 mm 1 mps 716 mmHg 13%
    13:00 +42°C° 0 mm 1 mps 715 mmHg 12%
    14:00 +43°C° 0 mm 1 mps 715 mmHg 11%
    15:00 +42°C° 0 mm 2 mps 714 mmHg 11%
    16:00 +42°C° 0 mm 2 mps 714 mmHg 11%
    17:00 +42°C° 0 mm 2 mps 714 mmHg 11%
    18:00 +40°C° 0 mm 2 mps 714 mmHg 12%
    19:00 +39°C° 0 mm 2 mps 715 mmHg 13%
    20:00 +37°C° 0 mm 2 mps 715 mmHg 15%
    21:00 +36°C° 0 mm 2 mps 715 mmHg 17%
    22:00 +35°C° 0 mm 2 mps 715 mmHg 20%
    23:00 +34°C° 0 mm 2 mps 715 mmHg 22%

    5 April, Sunday

    Time Temperature Precipitation Wind Pressure Humidity
    00:00 +33°C° 0 mm 3 mps 715 mmHg 22%
    01:00 +31°C° 0 mm 3 mps 715 mmHg 21%
    02:00 +32°C° 0 mm 4 mps 715 mmHg 21%
    03:00 +30°C° 0 mm 3 mps 715 mmHg 22%
    04:00 +29°C° 0 mm 3 mps 715 mmHg 24%
    05:00 +28°C° 0 mm 2 mps 715 mmHg 25%
    06:00 +30°C° 0 mm 2 mps 716 mmHg 22%
    07:00 +31°C° 0 mm 2 mps 716 mmHg 20%
    08:00 +34°C° 0 mm 2 mps 717 mmHg 17%
    09:00 +36°C° 0 mm 2 mps 717 mmHg 16%
    10:00 +37°C° 0 mm 1 mps 717 mmHg 14%
    11:00 +41°C° 0 mm 1 mps 717 mmHg 12%
    12:00 +41°C° 0 mm 1 mps 716 mmHg 11%
    13:00 +42°C° 0 mm 1 mps 716 mmHg 10%
    14:00 +43°C° 0 mm 1 mps 715 mmHg 10%
    15:00 +43°C° 0 mm 1 mps 715 mmHg 10%
    16:00 +43°C° 0 mm 2 mps 714 mmHg 9%
    17:00 +42°C° 0 mm 2 mps 714 mmHg 9%
    18:00 +41°C° 0 mm 2 mps 714 mmHg 11%
    19:00 +39°C° 0 mm 3 mps 715 mmHg 12%
    20:00 +38°C° 0 mm 3 mps 715 mmHg 13%
    21:00 +37°C° 0 mm 3 mps 716 mmHg 15%
    22:00 +36°C° 0 mm 4 mps 716 mmHg 18%
    23:00 +35°C° 0 mm 5 mps 716 mmHg 20%

    6 April, Monday

    Time Temperature Precipitation Wind Pressure Humidity
    00:00 +33°C° 0 mm 4 mps 716 mmHg 22%
    01:00 +31°C° 0 mm 3 mps 715 mmHg 23%
    02:00 +30°C° 0 mm 2 mps 715 mmHg 25%
    03:00 +29°C° 0 mm 2 mps 715 mmHg 25%
    04:00 +29°C° 0 mm 2 mps 715 mmHg 25%
    05:00 +28°C° 0 mm 2 mps 715 mmHg 25%
    06:00 +30°C° 0 mm 3 mps 716 mmHg 23%
    07:00 +33°C° 0 mm 4 mps 717 mmHg 21%
    08:00 +34°C° 0 mm 4 mps 717 mmHg 19%
    09:00 +36°C° 0 mm 3 mps 717 mmHg 17%
    10:00 +38°C° 0 mm 2 mps 717 mmHg 15%
    11:00 +40°C° 0 mm 2 mps 717 mmHg 12%
    12:00 +41°C° 0 mm 2 mps 717 mmHg 12%
    13:00 +41°C° 0 mm 2 mps 716 mmHg 11%
    14:00 +43°C° 0 mm 3 mps 715 mmHg 11%
    15:00 +42°C° 0 mm 3 mps 715 mmHg 11%
    16:00 +42°C° 0 mm 4 mps 714 mmHg 11%
    17:00 +42°C° 0 mm 4 mps 714 mmHg 11%
    18:00 +40°C° 0 mm 4 mps 714 mmHg 13%
    19:00 +37°C° 0 mm 4 mps 715 mmHg 14%
    20:00 +36°C° 0 mm 3 mps 715 mmHg 16%
    21:00 +35°C° 0 mm 4 mps 715 mmHg 18%
    22:00 +35°C° 0 mm 5 mps 715 mmHg 19%
    23:00 +34°C° 0 mm 5 mps 715 mmHg 21%

    7 April, Tuesday

    Time Temperature Precipitation Wind Pressure Humidity
    00:00 +33°C° 0 mm 5 mps 715 mmHg 23%
    01:00 +32°C° 0 mm 4 mps 714 mmHg 25%
    02:00 +30°C° 0 mm 3 mps 714 mmHg 26%
    03:00 +29°C° 0 mm 3 mps 714 mmHg 27%
    04:00 +28°C° 0 mm 3 mps 714 mmHg 27%
    05:00 +27°C° 0 mm 2 mps 714 mmHg 27%
    06:00 +29°C° 0 mm 2 mps 715 mmHg 25%
    07:00 +31°C° 0 mm 3 mps 716 mmHg 23%
    08:00 +33°C° 0 mm 3 mps 717 mmHg 20%
    09:00 +35°C° 0 mm 3 mps 717 mmHg 18%
    10:00 +37°C° 0 mm 2 mps 717 mmHg 15%
    11:00 +39°C° 0 mm 2 mps 717 mmHg 12%
    12:00 +40°C° 0 mm 3 mps 716 mmHg 11%
    13:00 +42°C° 0 mm 4 mps 715 mmHg 11%
    14:00 +43°C° 0 mm 5 mps 714 mmHg 10%
    15:00 +43°C° 0 mm 5 mps 714 mmHg 10%
    16:00 +42°C° 0 mm 5 mps 713 mmHg 11%
    17:00 +42°C° 0 mm 5 mps 713 mmHg 11%
    18:00 +40°C° 0 mm 5 mps 714 mmHg 13%
    19:00 +39°C° 0 mm 5 mps 714 mmHg 15%
    20:00 +36°C° 0 mm 5 mps 715 mmHg 17%
    21:00 +35°C° 0 mm 5 mps 715 mmHg 17%
    22:00 +34°C° 0 mm 6 mps 715 mmHg 17%
    23:00 +32°C° 0 mm 6 mps 715 mmHg 16%
    Show more